Date String (YYYY-MM-DD hh:mm:ss) UTC,Instrument flags,absolute air pressure of the measurement (hPa),sample flow rate (lpm),inlet stack bypass flow (lpm),air temperature of the measurement (°C),ambient temperature measured by the external sensor (°C),aerosol sample conditioner tube jacket temperature (°C),OPC LED temperature (°C),internal box temperature (°C),relative humidity of the measurement (%),span deviation,mass concentration of particles derived from Lorenz-Mie calculation of OPC scattering (μg/m³),mass concentration of particles derived from Lorenz-Mie calculation of OPC scattering (μg/m³),mass concentration of particles derived from Lorenz-Mie calculation of OPC scattering (μg/m³)
DateTimeUTC,F1_M11,P_M11,Q1_M11,Q2_M11,T1_M11,T2_M11,T3_M11,T4_M11,T5_M11,U1_M11,ZSPAN_M11,X0_M11,X2_M11,X1_M11
2023-09-21 17:00:00,SystemResetWarning,0828.8,5.00,000.00,028.1,026.6,000.0,036.3,029.6,20.4,0000.0,0008.11,0002.83,0002.08
2023-09-21 17:01:00,SystemResetWarning,0828.7,5.00,000.00,028.1,026.8,000.0,036.4,029.7,20.1,0000.0,0008.22,0002.86,0002.09
2023-09-21 17:02:00,SystemResetWarning,0828.8,5.00,000.00,028.1,026.9,000.0,036.4,029.7,20.3,0000.0,0008.59,0002.87,0002.09
2023-09-21 17:03:00,SystemResetWarning,0828.8,4.99,000.00,028.2,027.0,000.0,036.4,029.8,20.1,0000.0,0008.56,0002.81,0002.08
2023-09-21 17:04:00,SystemResetWarning,0828.8,4.99,000.00,028.2,026.7,000.0,036.4,029.7,20.2,0000.0,0008.69,0002.75,0002.08
2023-09-21 17:05:00,SystemResetWarning,0828.8,5.01,000.00,028.1,025.2,000.0,036.4,029.3,20.4,0000.0,0008.50,0002.74,0002.07
2023-09-21 17:06:00,SystemResetWarning,0828.7,5.00,000.00,028.0,024.3,000.0,036.3,029.2,20.7,0000.0,0008.11,0002.78,0002.08
2023-09-21 17:07:00,SystemResetWarning,0828.7,5.01,000.00,027.9,024.5,000.0,036.3,029.2,21.0,0000.0,0008.00,0002.76,0002.09
2023-09-21 17:08:00,SystemResetWarning,0828.7,5.00,000.00,027.9,024.9,000.0,036.3,029.1,20.6,0000.0,0008.37,0002.83,0002.10
2023-09-21 17:09:00,SystemResetWarning,0828.7,5.00,000.00,027.8,025.2,000.0,036.3,029.2,20.5,0000.0,0009.03,0002.85,0002.10
2023-09-21 17:10:00,SystemResetWarning,0828.7,5.00,000.00,027.9,025.5,000.0,036.3,029.3,20.7,0000.0,0009.23,0002.88,0002.10
2023-09-21 17:11:00,SystemResetWarning,0828.7,4.99,000.00,027.9,025.8,000.0,036.2,029.3,20.6,0000.0,0008.51,0002.90,0002.10
2023-09-21 17:12:00,SystemResetWarning,0828.7,5.00,000.00,027.9,026.1,000.0,036.2,029.4,20.6,0000.0,0008.09,0002.90,0002.11
2023-09-21 17:13:00,SystemResetWarning,0828.7,4.99,000.00,027.9,026.3,000.0,036.2,029.5,20.6,0000.0,0007.88,0002.93,0002.13
2023-09-21 17:14:00,SystemResetWarning,0828.7,5.00,000.00,028.0,026.5,000.0,036.3,029.6,20.5,0000.0,0008.15,0003.03,0002.13
2023-09-21 17:15:00,SystemResetWarning,0828.7,5.00,000.00,028.0,026.7,000.0,036.3,029.6,20.6,0000.0,0008.45,0003.06,0002.13
2023-09-21 17:16:00,SystemResetWarning,0828.7,5.01,000.00,028.1,026.8,000.0,036.3,029.7,21.0,0000.0,0008.69,0003.07,0002.14
2023-09-21 17:17:00,SystemResetWarning,0828.7,5.01,000.00,028.1,027.0,000.0,036.3,029.7,21.2,0000.0,0008.68,0003.06,0002.15
2023-09-21 17:18:00,SystemResetWarning,0828.7,4.99,000.00,028.1,026.5,000.0,036.3,029.7,20.7,0000.0,0009.31,0003.03,0002.14
2023-09-21 17:19:00,SystemResetWarning,0828.7,5.00,000.00,028.0,024.9,000.0,036.3,029.2,20.7,0000.0,0009.38,0002.96,0002.13
2023-09-21 17:20:00,SystemResetWarning,0828.7,5.01,000.00,027.9,024.2,000.0,036.2,029.1,21.0,0000.0,0009.06,0002.90,0002.13
2023-09-21 17:21:00,SystemResetWarning,0828.7,5.00,000.00,027.8,024.5,000.0,036.2,029.2,21.3,0000.0,0008.82,0002.85,0002.12
2023-09-21 17:22:00,SystemResetWarning,0828.7,4.99,000.00,027.8,024.8,000.0,036.2,029.1,21.3,0000.0,0009.92,0002.83,0002.12
2023-09-21 17:23:00,SystemResetWarning,0828.7,5.00,000.00,027.8,025.2,000.0,036.2,029.2,21.4,0000.0,0009.82,0002.81,0002.12
2023-09-21 17:24:00,SystemResetWarning,0828.8,5.00,000.00,027.8,025.5,000.0,036.2,029.3,21.4,0000.0,0009.77,0002.77,0002.11
2023-09-21 17:25:00,SystemResetWarning,0828.7,4.99,000.00,027.8,025.9,000.0,036.2,029.3,21.1,0000.0,0009.63,0002.74,0002.12
2023-09-21 17:26:00,SystemResetWarning,0828.7,4.99,000.00,027.8,026.1,000.0,036.2,029.4,20.9,0000.0,0009.24,0002.78,0002.12
2023-09-21 17:27:00,SystemResetWarning,0828.7,5.01,000.00,027.9,026.4,000.0,036.2,029.5,21.2,0000.0,0008.84,0002.78,0002.11
2023-09-21 17:28:00,SystemResetWarning,0828.7,5.01,000.00,027.9,026.6,000.0,036.2,029.5,21.4,0000.0,0009.16,0002.73,0002.10
2023-09-21 17:29:00,SystemResetWarning,0828.7,5.00,000.00,028.0,026.7,000.0,036.2,029.6,21.0,0000.0,0008.96,0002.76,0002.10
2023-09-21 17:30:00,SystemResetWarning,0828.7,5.00,000.00,028.0,026.9,000.0,036.3,029.7,21.1,0000.0,0008.26,0002.78,0002.12
2023-09-21 17:31:00,SystemResetWarning,0828.7,5.00,000.00,028.1,027.0,000.0,036.3,029.7,21.1,0000.0,0008.95,0002.79,0002.12
2023-09-21 17:32:00,SystemResetWarning,0828.6,4.98,000.00,028.1,026.3,000.0,036.3,029.6,20.6,0000.0,0009.48,0002.81,0002.14
2023-09-21 17:33:00,SystemResetWarning,0828.6,5.00,000.00,027.9,024.8,000.0,036.2,029.1,21.3,0000.0,0008.98,0002.87,0002.15
2023-09-21 17:34:00,SystemResetWarning,0828.6,5.01,000.00,027.8,024.3,000.0,036.2,029.1,21.2,0000.0,0009.05,0002.91,0002.16
2023-09-21 17:35:00,SystemResetWarning,0828.6,5.01,000.00,027.8,024.6,000.0,036.2,029.1,21.0,0000.0,0009.19,0002.99,0002.18
2023-09-21 17:36:00,SystemResetWarning,0828.7,5.00,000.00,027.7,024.9,000.0,036.2,029.1,20.8,0000.0,0009.48,0003.03,0002.19
2023-09-21 17:37:00,SystemResetWarning,0828.7,5.00,000.00,027.7,025.3,000.0,036.2,029.2,21.0,0000.0,0009.38,0002.97,0002.20
2023-09-21 17:38:00,SystemResetWarning,0828.6,5.01,000.00,027.8,025.7,000.0,036.2,029.3,21.5,0000.0,0009.52,0003.01,0002.20
2023-09-21 17:39:00,SystemResetWarning,0828.6,4.99,000.00,027.8,026.0,000.0,036.2,029.3,21.6,0000.0,0010.41,0003.09,0002.21
2023-09-21 17:40:00,SystemResetWarning,0828.7,5.00,000.00,027.8,026.2,000.0,036.2,029.4,21.8,0000.0,0010.35,0003.10,0002.22
2023-09-21 17:41:00,SystemResetWarning,0828.6,5.00,000.00,027.9,026.4,000.0,036.2,029.5,21.7,0000.0,0011.24,0003.12,0002.22
2023-09-21 17:42:00,SystemResetWarning,0828.6,5.00,000.00,027.9,026.6,000.0,036.2,029.5,21.7,0000.0,0010.89,0003.13,0002.22
2023-09-21 17:43:00,SystemResetWarning,0828.6,5.00,000.00,028.0,026.8,000.0,036.2,029.6,21.5,0000.0,0010.39,0003.13,0002.21
2023-09-21 17:44:00,SystemResetWarning,0828.5,4.99,000.00,028.0,026.9,000.0,036.2,029.7,21.7,0000.0,0010.48,0003.08,0002.20
2023-09-21 17:45:00,SystemResetWarning,0828.5,4.99,000.00,028.0,026.6,000.0,036.2,029.7,21.5,0000.0,0010.56,0003.14,0002.21
2023-09-21 17:46:00,SystemResetWarning,0828.5,5.00,000.00,028.0,025.2,000.0,036.2,029.2,21.3,0000.0,0010.75,0003.13,0002.20
2023-09-21 17:47:00,SystemResetWarning,0828.4,5.00,000.00,027.9,024.2,000.0,036.1,029.1,21.1,0000.0,0010.73,0003.14,0002.18
2023-09-21 17:48:00,SystemResetWarning,0828.4,5.01,000.00,027.8,024.4,000.0,036.1,029.2,21.8,0000.0,0011.16,0003.16,0002.18
2023-09-21 17:49:00,SystemResetWarning,0828.4,5.00,000.00,027.7,024.7,000.0,036.1,029.1,22.2,0000.0,0011.26,0003.14,0002.18
2023-09-21 17:50:00,SystemResetWarning,0828.4,5.00,000.00,027.7,025.1,000.0,036.1,029.1,22.1,0000.0,0010.38,0003.15,0002.18
2023-09-21 17:51:00,SystemResetWarning,0828.4,5.00,000.00,027.7,025.4,000.0,036.1,029.2,21.2,0000.0,0009.69,0003.17,0002.18
2023-09-21 17:52:00,SystemResetWarning,0828.4,4.99,000.00,027.8,025.8,000.0,036.1,029.3,21.1,0000.0,0009.03,0003.18,0002.18
2023-09-21 17:53:00,SystemResetWarning,0828.4,5.00,000.00,027.8,026.0,000.0,036.1,029.3,21.2,0000.0,0009.06,0003.20,0002.18
2023-09-21 17:54:00,SystemResetWarning,0828.3,5.00,000.00,027.8,026.3,000.0,036.1,029.4,20.5,0000.0,0009.15,0003.22,0002.18
2023-09-21 17:55:00,SystemResetWarning,0828.4,5.00,000.00,027.9,026.5,000.0,036.2,029.5,20.8,0000.0,0008.45,0003.28,0002.20
2023-09-21 17:56:00,SystemResetWarning,0828.4,5.00,000.00,027.9,026.7,000.0,036.2,029.5,21.1,0000.0,0008.51,0003.26,0002.22
2023-09-21 17:57:00,SystemResetWarning,0828.3,5.00,000.00,028.0,026.8,000.0,036.2,029.6,21.0,0000.0,0008.34,0003.27,0002.24
2023-09-21 17:58:00,SystemResetWarning,0828.4,5.00,000.00,028.0,026.9,000.0,036.2,029.7,21.0,0000.0,0008.03,0003.25,0002.24
2023-09-21 17:59:00,SystemResetWarning,0828.3,4.98,000.00,028.0,025.7,000.0,036.2,029.3,20.8,0000.0,0007.77,0003.25,0002.27
